contact:dominique.lefevre@mio.osupytheas.fr, maurice.libes@osupytheas.fr, didier.mallarino@osupytheas.fr
Project:EMSO http://www.emso-fr.org/EMSO-France
Depth: 2436.0 m
Title:EMSO Ligure Ouest : Data MII capteur MICROCAT
DateTime_Computer,Latitude,Longitude,Temperature,Conductivity,Pressure,DateTime_Instrument
DateTime_Computer,Latitude,Longitude,degC,S m-1,dbar,DateTime_Instrument
2022-12-04T00:01:34Z,42.805,6.029,13.3021,4.60076,2470.614,2022-12-04T02:03:34Z
2022-12-04T00:04:37Z,42.805,6.029,13.3021,4.60075,2470.591,2022-12-04T02:06:37Z
2022-12-04T00:07:40Z,42.805,6.029,13.3026,4.60094,2470.567,2022-12-04T02:09:40Z
2022-12-04T00:10:43Z,42.805,6.029,13.3021,4.60074,2470.553,2022-12-04T02:12:43Z
2022-12-04T00:13:46Z,42.805,6.029,13.3024,4.60075,2470.577,2022-12-04T02:15:46Z
2022-12-04T00:16:49Z,42.805,6.029,13.3017,4.60073,2470.591,2022-12-04T02:18:49Z
2022-12-04T00:19:52Z,42.805,6.029,13.3021,4.60072,2470.577,2022-12-04T02:21:52Z
2022-12-04T00:22:55Z,42.805,6.029,13.3024,4.60074,2470.614,2022-12-04T02:24:55Z
2022-12-04T00:25:58Z,42.805,6.029,13.3021,4.60084,2470.591,2022-12-04T02:27:58Z
2022-12-04T00:29:01Z,42.805,6.029,13.3028,4.60075,2470.577,2022-12-04T02:31:01Z
2022-12-04T00:32:04Z,42.805,6.029,13.3016,4.60072,2470.6,2022-12-04T02:34:04Z
2022-12-04T00:35:07Z,42.805,6.029,13.3020,4.60074,2470.614,2022-12-04T02:37:07Z
2022-12-04T00:38:10Z,42.805,6.029,13.3019,4.60077,2470.591,2022-12-04T02:40:10Z
2022-12-04T00:41:14Z,42.805,6.029,13.3020,4.60074,2470.614,2022-12-04T02:43:13Z
2022-12-04T00:44:17Z,42.805,6.029,13.3024,4.60074,2470.6,2022-12-04T02:46:16Z
2022-12-04T00:47:20Z,42.805,6.029,13.3026,4.60076,2470.577,2022-12-04T02:49:20Z
2022-12-04T00:50:23Z,42.805,6.029,13.3026,4.60086,2470.6,2022-12-04T02:52:23Z
2022-12-04T00:53:26Z,42.805,6.029,13.3021,4.60075,2470.577,2022-12-04T02:55:26Z
2022-12-04T00:56:29Z,42.805,6.029,13.3022,4.60074,2470.6,2022-12-04T02:58:29Z
2022-12-04T00:59:32Z,42.805,6.029,13.3020,4.60079,2470.577,2022-12-04T03:01:32Z
2022-12-04T01:02:35Z,42.805,6.029,13.3023,4.60076,2470.6,2022-12-04T03:04:35Z
2022-12-04T01:05:38Z,42.805,6.029,13.3023,4.60078,2470.6,2022-12-04T03:07:38Z
2022-12-04T01:08:41Z,42.805,6.029,13.3022,4.60071,2470.6,2022-12-04T03:10:41Z
2022-12-04T01:11:44Z,42.805,6.029,13.3025,4.60073,2470.577,2022-12-04T03:13:44Z
2022-12-04T01:14:47Z,42.805,6.029,13.3024,4.60078,2470.6,2022-12-04T03:16:47Z
2022-12-04T01:17:50Z,42.805,6.029,13.3023,4.60076,2470.646,2022-12-04T03:19:50Z
2022-12-04T01:20:53Z,42.805,6.029,13.3024,4.60074,2470.624,2022-12-04T03:22:53Z
2022-12-04T01:23:57Z,42.805,6.029,13.3023,4.60074,2470.646,2022-12-04T03:25:56Z
2022-12-04T01:27:00Z,42.805,6.029,13.3019,4.60079,2470.624,2022-12-04T03:28:59Z
2022-12-04T01:30:03Z,42.805,6.029,13.3023,4.60084,2470.637,2022-12-04T03:32:03Z
2022-12-04T01:33:06Z,42.805,6.029,13.3021,4.60074,2470.646,2022-12-04T03:35:06Z
2022-12-04T01:36:09Z,42.805,6.029,13.3031,4.60088,2470.661,2022-12-04T03:38:09Z
2022-12-04T01:39:12Z,42.805,6.029,13.3021,4.60083,2470.637,2022-12-04T03:41:12Z
2022-12-04T01:42:15Z,42.805,6.029,13.3026,4.60079,2470.6,2022-12-04T03:44:15Z
2022-12-04T01:45:18Z,42.805,6.029,13.3023,4.60074,2470.624,2022-12-04T03:47:18Z
2022-12-04T01:48:21Z,42.805,6.029,13.3024,4.60073,2470.684,2022-12-04T03:50:21Z
2022-12-04T01:51:24Z,42.805,6.029,13.3021,4.60079,2470.646,2022-12-04T03:53:24Z
2022-12-04T01:54:27Z,42.805,6.029,13.3019,4.60074,2470.624,2022-12-04T03:56:27Z
2022-12-04T01:57:30Z,42.805,6.029,13.3024,4.60072,2470.624,2022-12-04T03:59:30Z
2022-12-04T02:00:33Z,42.805,6.029,13.3025,4.60074,2470.646,2022-12-04T04:02:33Z
2022-12-04T02:03:36Z,42.805,6.029,13.3018,4.60074,2470.646,2022-12-04T04:05:36Z
2022-12-04T02:06:40Z,42.805,6.029,13.3015,4.60069,2470.646,2022-12-04T04:08:39Z
2022-12-04T02:09:43Z,42.805,6.029,13.3017,4.60082,2470.646,2022-12-04T04:11:42Z
2022-12-04T02:12:46Z,42.805,6.029,13.3017,4.60085,2470.661,2022-12-04T04:14:46Z
2022-12-04T02:15:49Z,42.805,6.029,13.3024,4.60078,2470.624,2022-12-04T04:17:49Z
2022-12-04T02:18:52Z,42.805,6.029,13.3027,4.60088,2470.637,2022-12-04T04:20:52Z
2022-12-04T02:21:55Z,42.805,6.029,13.3022,4.60079,2470.646,2022-12-04T04:23:55Z
2022-12-04T02:24:58Z,42.805,6.029,13.3021,4.60074,2470.624,2022-12-04T04:26:58Z
2022-12-04T02:28:01Z,42.805,6.029,13.3024,4.60077,2470.646,2022-12-04T04:30:01Z
2022-12-04T02:31:04Z,42.805,6.029,13.3015,4.60069,2470.67,2022-12-04T04:33:04Z
2022-12-04T02:34:07Z,42.805,6.029,13.3015,4.60070,2470.67,2022-12-04T04:36:07Z
2022-12-04T02:37:10Z,42.805,6.029,13.3020,4.60077,2470.684,2022-12-04T04:39:10Z
2022-12-04T02:40:13Z,42.805,6.029,13.3021,4.60072,2470.684,2022-12-04T04:42:13Z
2022-12-04T02:43:16Z,42.805,6.029,13.3024,4.60072,2470.646,2022-12-04T04:45:16Z
2022-12-04T02:46:20Z,42.805,6.029,13.3015,4.60074,2470.67,2022-12-04T04:48:19Z
2022-12-04T02:49:23Z,42.805,6.029,13.3020,4.60072,2470.661,2022-12-04T04:51:22Z
2022-12-04T02:52:26Z,42.805,6.029,13.3020,4.60077,2470.646,2022-12-04T04:54:25Z
2022-12-04T02:55:29Z,42.805,6.029,13.3020,4.60081,2470.67,2022-12-04T04:57:29Z
2022-12-04T02:58:32Z,42.805,6.029,13.3018,4.60078,2470.684,2022-12-04T05:00:32Z
2022-12-04T03:01:35Z,42.805,6.029,13.3023,4.60076,2470.693,2022-12-04T05:03:35Z
2022-12-04T03:04:38Z,42.805,6.029,13.3020,4.60074,2470.707,2022-12-04T05:06:38Z
2022-12-04T03:07:41Z,42.805,6.029,13.3022,4.60077,2470.67,2022-12-04T05:09:41Z
2022-12-04T03:10:44Z,42.805,6.029,13.3019,4.60076,2470.67,2022-12-04T05:12:44Z
2022-12-04T03:13:47Z,42.805,6.029,13.3022,4.60077,2470.646,2022-12-04T05:15:47Z
2022-12-04T03:16:50Z,42.805,6.029,13.3014,4.60072,2470.67,2022-12-04T05:18:50Z
2022-12-04T03:19:53Z,42.805,6.029,13.3025,4.60074,2470.693,2022-12-04T05:21:53Z
2022-12-04T03:22:56Z,42.805,6.029,13.3026,4.60077,2470.684,2022-12-04T05:24:56Z
2022-12-04T03:25:59Z,42.805,6.029,13.3016,4.60070,2470.67,2022-12-04T05:27:59Z
2022-12-04T03:29:02Z,42.805,6.029,13.3024,4.60089,2470.707,2022-12-04T05:31:02Z
2022-12-04T03:32:06Z,42.805,6.029,13.3021,4.60075,2470.693,2022-12-04T05:34:05Z
2022-12-04T03:35:09Z,42.805,6.029,13.3017,4.60074,2470.707,2022-12-04T05:37:08Z
2022-12-04T03:38:12Z,42.805,6.029,13.3022,4.60072,2470.67,2022-12-04T05:40:12Z
2022-12-04T03:41:15Z,42.805,6.029,13.3021,4.60072,2470.684,2022-12-04T05:43:15Z
2022-12-04T03:44:18Z,42.805,6.029,13.3013,4.60067,2470.693,2022-12-04T05:46:18Z
2022-12-04T03:47:21Z,42.805,6.029,13.3018,4.60074,2470.67,2022-12-04T05:49:21Z
2022-12-04T03:50:24Z,42.805,6.029,13.3017,4.60075,2470.67,2022-12-04T05:52:24Z
2022-12-04T03:53:27Z,42.805,6.029,13.3018,4.60069,2470.73,2022-12-04T05:55:27Z
2022-12-04T03:56:30Z,42.805,6.029,13.3022,4.60072,2470.656,2022-12-04T05:58:30Z
2022-12-04T03:59:33Z,42.805,6.029,13.3011,4.60069,2470.693,2022-12-04T06:01:33Z
2022-12-04T04:02:36Z,42.805,6.029,13.3019,4.60075,2470.717,2022-12-04T06:04:36Z
2022-12-04T04:05:39Z,42.805,6.029,13.3017,4.60068,2470.717,2022-12-04T06:07:39Z
2022-12-04T04:08:42Z,42.805,6.029,13.3016,4.60068,2470.693,2022-12-04T06:10:42Z
2022-12-04T04:11:45Z,42.805,6.029,13.3019,4.60076,2470.717,2022-12-04T06:13:45Z
2022-12-04T04:14:49Z,42.805,6.029,13.3020,4.60069,2470.693,2022-12-04T06:16:48Z
2022-12-04T04:17:52Z,42.805,6.029,13.3012,4.60068,2470.693,2022-12-04T06:19:51Z
2022-12-04T04:20:55Z,42.805,6.029,13.3015,4.60066,2470.717,2022-12-04T06:22:55Z
2022-12-04T04:23:58Z,42.805,6.029,13.3019,4.60072,2470.693,2022-12-04T06:25:58Z
2022-12-04T04:27:01Z,42.805,6.029,13.3018,4.60077,2470.707,2022-12-04T06:29:01Z
2022-12-04T04:30:04Z,42.805,6.029,13.3016,4.60067,2470.707,2022-12-04T06:32:04Z
2022-12-04T04:33:07Z,42.805,6.029,13.3011,4.60064,2470.693,2022-12-04T06:35:07Z
2022-12-04T04:36:10Z,42.805,6.029,13.3017,4.60067,2470.684,2022-12-04T06:38:10Z
2022-12-04T04:39:13Z,42.805,6.029,13.3017,4.60067,2470.707,2022-12-04T06:41:13Z
2022-12-04T04:42:16Z,42.805,6.029,13.3018,4.60069,2470.67,2022-12-04T06:44:16Z
2022-12-04T04:45:19Z,42.805,6.029,13.3015,4.60075,2470.67,2022-12-04T06:47:19Z
2022-12-04T04:48:22Z,42.805,6.029,13.3014,4.60064,2470.717,2022-12-04T06:50:22Z
2022-12-04T04:51:25Z,42.805,6.029,13.3016,4.60066,2470.693,2022-12-04T06:53:25Z
2022-12-04T04:54:28Z,42.805,6.029,13.3014,4.60066,2470.693,2022-12-04T06:56:28Z
2022-12-04T04:57:32Z,42.805,6.029,13.3015,4.60066,2470.693,2022-12-04T06:59:31Z
2022-12-04T05:00:35Z,42.805,6.029,13.3018,4.60075,2470.707,2022-12-04T07:02:34Z
2022-12-04T05:03:38Z,42.805,6.029,13.3013,4.60064,2470.67,2022-12-04T07:05:37Z
2022-12-04T05:06:41Z,42.805,6.029,13.3017,4.60068,2470.693,2022-12-04T07:08:41Z
2022-12-04T05:09:44Z,42.805,6.029,13.3017,4.60068,2470.754,2022-12-04T07:11:44Z
2022-12-04T05:12:47Z,42.805,6.029,13.3010,4.60064,2470.67,2022-12-04T07:14:47Z
2022-12-04T05:15:50Z,42.805,6.029,13.3014,4.60071,2470.74,2022-12-04T07:17:50Z
2022-12-04T05:18:53Z,42.805,6.029,13.3011,4.60068,2470.693,2022-12-04T07:20:53Z
2022-12-04T05:21:56Z,42.805,6.029,13.3012,4.60073,2470.693,2022-12-04T07:23:56Z
2022-12-04T05:24:59Z,42.805,6.029,13.3019,4.60072,2470.67,2022-12-04T07:26:59Z
2022-12-04T05:28:02Z,42.805,6.029,13.3016,4.60070,2470.73,2022-12-04T07:30:02Z
2022-12-04T05:31:05Z,42.805,6.029,13.3018,4.60067,2470.67,2022-12-04T07:33:05Z
2022-12-04T05:34:08Z,42.805,6.029,13.3014,4.60066,2470.693,2022-12-04T07:36:08Z
2022-12-04T05:37:11Z,42.805,6.029,13.3017,4.60065,2470.67,2022-12-04T07:39:11Z
2022-12-04T05:40:15Z,42.805,6.029,13.3015,4.60069,2470.73,2022-12-04T07:42:14Z
2022-12-04T05:43:18Z,42.805,6.029,13.3019,4.60077,2470.67,2022-12-04T07:45:17Z
2022-12-04T05:46:21Z,42.805,6.029,13.3012,4.60067,2470.679,2022-12-04T07:48:20Z
2022-12-04T05:49:24Z,42.805,6.029,13.3019,4.60068,2470.693,2022-12-04T07:51:24Z
2022-12-04T05:52:27Z,42.805,6.029,13.3014,4.60070,2470.693,2022-12-04T07:54:27Z
2022-12-04T05:55:30Z,42.805,6.029,13.3021,4.60071,2470.693,2022-12-04T07:57:30Z
2022-12-04T05:58:33Z,42.805,6.029,13.3014,4.60068,2470.707,2022-12-04T08:00:33Z
2022-12-04T06:01:36Z,42.805,6.029,13.3021,4.60070,2470.717,2022-12-04T08:03:36Z
2022-12-04T06:04:39Z,42.805,6.029,13.3015,4.60073,2470.717,2022-12-04T08:06:39Z
2022-12-04T06:07:42Z,42.805,6.029,13.3014,4.60067,2470.707,2022-12-04T08:09:42Z
2022-12-04T06:10:45Z,42.805,6.029,13.3014,4.60072,2470.693,2022-12-04T08:12:45Z
2022-12-04T06:13:48Z,42.805,6.029,13.3017,4.60072,2470.693,2022-12-04T08:15:48Z
2022-12-04T06:16:51Z,42.805,6.029,13.3021,4.60069,2470.67,2022-12-04T08:18:51Z
2022-12-04T06:19:54Z,42.805,6.029,13.3015,4.60070,2470.707,2022-12-04T08:21:54Z
2022-12-04T06:22:57Z,42.805,6.029,13.3011,4.60064,2470.693,2022-12-04T08:24:57Z
2022-12-04T06:26:01Z,42.805,6.029,13.3019,4.60075,2470.707,2022-12-04T08:28:00Z
2022-12-04T06:29:04Z,42.805,6.029,13.3014,4.60074,2470.693,2022-12-04T08:31:03Z
2022-12-04T06:32:07Z,42.805,6.029,13.3015,4.60069,2470.707,2022-12-04T08:34:07Z
2022-12-04T06:35:10Z,42.805,6.029,13.3011,4.60064,2470.693,2022-12-04T08:37:10Z
2022-12-04T06:38:13Z,42.805,6.029,13.3016,4.60069,2470.684,2022-12-04T08:40:13Z
2022-12-04T06:41:16Z,42.805,6.029,13.3015,4.60067,2470.707,2022-12-04T08:43:16Z
2022-12-04T06:44:19Z,42.805,6.029,13.3012,4.60067,2470.646,2022-12-04T08:46:19Z
2022-12-04T06:47:22Z,42.805,6.029,13.3019,4.60069,2470.67,2022-12-04T08:49:22Z
2022-12-04T06:50:25Z,42.805,6.029,13.3017,4.60067,2470.67,2022-12-04T08:52:25Z
2022-12-04T06:53:28Z,42.805,6.029,13.3013,4.60074,2470.67,2022-12-04T08:55:28Z
2022-12-04T06:56:31Z,42.805,6.029,13.3015,4.60067,2470.693,2022-12-04T08:58:31Z
2022-12-04T06:59:34Z,42.805,6.029,13.3014,4.60067,2470.684,2022-12-04T09:01:34Z
2022-12-04T07:02:37Z,42.805,6.029,13.3019,4.60067,2470.624,2022-12-04T09:04:37Z
2022-12-04T07:05:40Z,42.805,6.029,13.3016,4.60064,2470.693,2022-12-04T09:07:40Z
2022-12-04T07:08:44Z,42.805,6.029,13.3013,4.60066,2470.684,2022-12-04T09:10:43Z
2022-12-04T07:11:47Z,42.805,6.029,13.3013,4.60069,2470.67,2022-12-04T09:13:46Z
2022-12-04T07:14:50Z,42.805,6.029,13.3018,4.60067,2470.684,2022-12-04T09:16:50Z
2022-12-04T07:17:53Z,42.805,6.029,13.3015,4.60073,2470.693,2022-12-04T09:19:53Z
2022-12-04T07:20:56Z,42.805,6.029,13.3019,4.60079,2470.707,2022-12-04T09:22:56Z
2022-12-04T07:23:59Z,42.805,6.029,13.3015,4.60066,2470.661,2022-12-04T09:25:59Z
2022-12-04T07:27:02Z,42.805,6.029,13.3014,4.60064,2470.693,2022-12-04T09:29:02Z
2022-12-04T07:30:05Z,42.805,6.029,13.3017,4.60066,2470.67,2022-12-04T09:32:05Z
2022-12-04T07:33:08Z,42.805,6.029,13.3019,4.60068,2470.67,2022-12-04T09:35:08Z
2022-12-04T07:36:11Z,42.805,6.029,13.3014,4.60067,2470.661,2022-12-04T09:38:11Z
2022-12-04T07:39:14Z,42.805,6.029,13.3014,4.60068,2470.684,2022-12-04T09:41:14Z
2022-12-04T07:42:17Z,42.805,6.029,13.3018,4.60069,2470.646,2022-12-04T09:44:17Z
2022-12-04T07:45:20Z,42.805,6.029,13.3014,4.60068,2470.661,2022-12-04T09:47:20Z
2022-12-04T07:48:23Z,42.805,6.029,13.3019,4.60074,2470.67,2022-12-04T09:50:23Z
2022-12-04T07:51:27Z,42.805,6.029,13.3012,4.60071,2470.684,2022-12-04T09:53:26Z
2022-12-04T07:54:30Z,42.805,6.029,13.3019,4.60078,2470.624,2022-12-04T09:56:29Z
2022-12-04T07:57:33Z,42.805,6.029,13.3014,4.60067,2470.684,2022-12-04T09:59:33Z
2022-12-04T08:00:36Z,42.805,6.029,13.3029,4.60078,2470.693,2022-12-04T10:02:36Z
2022-12-04T08:03:39Z,42.805,6.029,13.3016,4.60075,2470.684,2022-12-04T10:05:39Z
2022-12-04T08:06:42Z,42.805,6.029,13.3015,4.60069,2470.637,2022-12-04T10:08:42Z
2022-12-04T08:09:45Z,42.805,6.029,13.3015,4.60067,2470.646,2022-12-04T10:11:45Z
2022-12-04T08:12:48Z,42.805,6.029,13.3019,4.60072,2470.646,2022-12-04T10:14:48Z
2022-12-04T08:15:51Z,42.805,6.029,13.3024,4.60072,2470.624,2022-12-04T10:17:51Z
2022-12-04T08:18:54Z,42.805,6.029,13.3017,4.60067,2470.637,2022-12-04T10:20:54Z
2022-12-04T08:21:57Z,42.805,6.029,13.3017,4.60074,2470.661,2022-12-04T10:23:57Z
2022-12-04T08:25:00Z,42.805,6.029,13.3014,4.60067,2470.646,2022-12-04T10:27:00Z
2022-12-04T08:28:03Z,42.805,6.029,13.3016,4.60070,2470.661,2022-12-04T10:30:03Z
2022-12-04T08:31:07Z,42.805,6.029,13.3014,4.60073,2470.61,2022-12-04T10:33:06Z
2022-12-04T08:34:10Z,42.805,6.029,13.3014,4.60077,2470.646,2022-12-04T10:36:09Z
2022-12-04T08:37:13Z,42.805,6.029,13.3020,4.60077,2470.624,2022-12-04T10:39:13Z
2022-12-04T08:40:16Z,42.805,6.029,13.3017,4.60074,2470.661,2022-12-04T10:42:16Z
2022-12-04T08:43:19Z,42.805,6.029,13.3025,4.60073,2470.646,2022-12-04T10:45:19Z
2022-12-04T08:46:22Z,42.805,6.029,13.3022,4.60082,2470.684,2022-12-04T10:48:22Z
2022-12-04T08:49:25Z,42.805,6.029,13.3017,4.60081,2470.637,2022-12-04T10:51:25Z
2022-12-04T08:52:28Z,42.805,6.029,13.3023,4.60077,2470.637,2022-12-04T10:54:28Z
2022-12-04T08:55:31Z,42.805,6.029,13.3021,4.60074,2470.624,2022-12-04T10:57:31Z
2022-12-04T08:58:34Z,42.805,6.029,13.3021,4.60074,2470.624,2022-12-04T11:00:34Z
2022-12-04T09:01:37Z,42.805,6.029,13.3021,4.60072,2470.614,2022-12-04T11:03:37Z
2022-12-04T09:04:40Z,42.805,6.029,13.3021,4.60074,2470.646,2022-12-04T11:06:40Z
2022-12-04T09:07:43Z,42.805,6.029,13.3019,4.60075,2470.6,2022-12-04T11:09:43Z
2022-12-04T09:10:46Z,42.805,6.029,13.3019,4.60079,2470.637,2022-12-04T11:12:46Z
2022-12-04T09:13:50Z,42.805,6.029,13.3017,4.60078,2470.637,2022-12-04T11:15:49Z
2022-12-04T09:16:53Z,42.805,6.029,13.3024,4.60088,2470.637,2022-12-04T11:18:52Z
2022-12-04T09:19:56Z,42.805,6.029,13.3023,4.60079,2470.637,2022-12-04T11:21:56Z
2022-12-04T09:22:59Z,42.805,6.029,13.3023,4.60082,2470.624,2022-12-04T11:24:59Z
2022-12-04T09:26:02Z,42.805,6.029,13.3019,4.60073,2470.646,2022-12-04T11:28:02Z
2022-12-04T09:29:05Z,42.805,6.029,13.3019,4.60080,2470.661,2022-12-04T11:31:05Z
2022-12-04T09:32:08Z,42.805,6.029,13.3031,4.60086,2470.646,2022-12-04T11:34:08Z
2022-12-04T09:35:11Z,42.805,6.029,13.3024,4.60079,2470.646,2022-12-04T11:37:11Z
2022-12-04T09:38:14Z,42.805,6.029,13.3023,4.60086,2470.637,2022-12-04T11:40:14Z
2022-12-04T09:41:17Z,42.805,6.029,13.3019,4.60079,2470.624,2022-12-04T11:43:17Z
2022-12-04T09:44:20Z,42.805,6.029,13.3020,4.60077,2470.614,2022-12-04T11:46:20Z
2022-12-04T09:47:23Z,42.805,6.029,13.3018,4.60073,2470.6,2022-12-04T11:49:23Z
2022-12-04T09:50:26Z,42.805,6.029,13.3022,4.60074,2470.624,2022-12-04T11:52:26Z
2022-12-04T09:53:30Z,42.805,6.029,13.3021,4.60079,2470.6,2022-12-04T11:55:29Z
2022-12-04T09:56:33Z,42.805,6.029,13.3022,4.60076,2470.661,2022-12-04T11:58:32Z
2022-12-04T09:59:36Z,42.805,6.029,13.3025,4.60078,2470.6,2022-12-04T12:01:36Z
2022-12-04T10:02:39Z,42.805,6.029,13.3026,4.60082,2470.637,2022-12-04T12:04:39Z
2022-12-04T10:05:42Z,42.805,6.029,13.3027,4.60077,2470.614,2022-12-04T12:07:42Z
2022-12-04T10:08:45Z,42.805,6.029,13.3021,4.60073,2470.614,2022-12-04T12:10:45Z
2022-12-04T10:11:48Z,42.805,6.029,13.3021,4.60073,2470.614,2022-12-04T12:13:48Z
2022-12-04T10:14:51Z,42.805,6.029,13.3031,4.60080,2470.624,2022-12-04T12:16:51Z
2022-12-04T10:17:54Z,42.805,6.029,13.3021,4.60074,2470.624,2022-12-04T12:19:54Z
2022-12-04T10:20:57Z,42.805,6.029,13.3018,4.60073,2470.577,2022-12-04T12:22:57Z
2022-12-04T10:24:00Z,42.805,6.029,13.3022,4.60074,2470.624,2022-12-04T12:26:00Z
2022-12-04T10:27:03Z,42.805,6.029,13.3021,4.60081,2470.577,2022-12-04T12:29:03Z
2022-12-04T10:30:06Z,42.805,6.029,13.3023,4.60075,2470.614,2022-12-04T12:32:06Z
2022-12-04T10:33:10Z,42.805,6.029,13.3019,4.60076,2470.563,2022-12-04T12:35:09Z
2022-12-04T10:36:13Z,42.805,6.029,13.3023,4.60078,2470.637,2022-12-04T12:38:12Z
2022-12-04T10:39:16Z,42.805,6.029,13.3024,4.60088,2470.6,2022-12-04T12:41:16Z
2022-12-04T10:42:19Z,42.805,6.029,13.3021,4.60077,2470.577,2022-12-04T12:44:19Z
2022-12-04T10:45:22Z,42.805,6.029,13.3027,4.60079,2470.6,2022-12-04T12:47:22Z
2022-12-04T10:48:25Z,42.805,6.029,13.3021,4.60078,2470.6,2022-12-04T12:50:25Z
2022-12-04T10:51:28Z,42.805,6.029,13.3021,4.60077,2470.624,2022-12-04T12:53:28Z
2022-12-04T10:54:31Z,42.805,6.029,13.3026,4.60079,2470.637,2022-12-04T12:56:31Z
2022-12-04T10:57:34Z,42.805,6.029,13.3023,4.60078,2470.614,2022-12-04T12:59:34Z
2022-12-04T11:00:37Z,42.805,6.029,13.3030,4.60079,2470.614,2022-12-04T13:02:37Z
2022-12-04T11:03:40Z,42.805,6.029,13.3021,4.60086,2470.577,2022-12-04T13:05:40Z
2022-12-04T11:06:43Z,42.805,6.029,13.3026,4.60094,2470.563,2022-12-04T13:08:43Z
2022-12-04T11:09:46Z,42.805,6.029,13.3026,4.60095,2470.553,2022-12-04T13:11:46Z
2022-12-04T11:12:49Z,42.805,6.029,13.3019,4.60080,2470.6,2022-12-04T13:14:49Z
2022-12-04T11:15:53Z,42.805,6.029,13.3024,4.60082,2470.553,2022-12-04T13:17:52Z
2022-12-04T11:18:56Z,42.805,6.029,13.3020,4.60079,2470.637,2022-12-04T13:20:55Z
2022-12-04T11:21:59Z,42.805,6.029,13.3021,4.60079,2470.6,2022-12-04T13:23:59Z
2022-12-04T11:25:02Z,42.805,6.029,13.3019,4.60082,2470.614,2022-12-04T13:27:02Z
2022-12-04T11:28:05Z,42.805,6.029,13.3024,4.60079,2470.577,2022-12-04T13:30:05Z
2022-12-04T11:31:08Z,42.805,6.029,13.3024,4.60080,2470.6,2022-12-04T13:33:08Z
2022-12-04T11:34:11Z,42.805,6.029,13.3026,4.60090,2470.6,2022-12-04T13:36:11Z
2022-12-04T11:37:14Z,42.805,6.029,13.3029,4.60084,2470.577,2022-12-04T13:39:14Z
2022-12-04T11:40:17Z,42.805,6.029,13.3026,4.60081,2470.567,2022-12-04T13:42:17Z
2022-12-04T11:43:20Z,42.805,6.029,13.3024,4.60080,2470.614,2022-12-04T13:45:20Z
2022-12-04T11:46:23Z,42.805,6.029,13.3021,4.60077,2470.577,2022-12-04T13:48:23Z
2022-12-04T11:49:26Z,42.805,6.029,13.3022,4.60079,2470.624,2022-12-04T13:51:26Z
2022-12-04T11:52:29Z,42.805,6.029,13.3026,4.60079,2470.577,2022-12-04T13:54:29Z
2022-12-04T11:55:33Z,42.805,6.029,13.3027,4.60080,2470.567,2022-12-04T13:57:32Z
2022-12-04T11:58:36Z,42.805,6.029,13.3026,4.60084,2470.661,2022-12-04T14:00:35Z
2022-12-04T12:01:39Z,42.805,6.029,13.3027,4.60088,2470.577,2022-12-04T14:03:39Z
2022-12-04T12:04:42Z,42.805,6.029,13.3026,4.60094,2470.577,2022-12-04T14:06:42Z
2022-12-04T12:07:45Z,42.805,6.029,13.3029,4.60084,2470.6,2022-12-04T14:09:45Z
2022-12-04T12:10:48Z,42.805,6.029,13.3028,4.60082,2470.577,2022-12-04T14:12:48Z
2022-12-04T12:13:51Z,42.805,6.029,13.3027,4.60089,2470.591,2022-12-04T14:15:51Z
2022-12-04T12:16:54Z,42.805,6.029,13.3021,4.60082,2470.614,2022-12-04T14:18:54Z
2022-12-04T12:19:57Z,42.805,6.029,13.3025,4.60081,2470.624,2022-12-04T14:21:57Z
2022-12-04T12:23:00Z,42.805,6.029,13.3024,4.60094,2470.6,2022-12-04T14:25:00Z
2022-12-04T12:26:03Z,42.805,6.029,13.3023,4.60084,2470.586,2022-12-04T14:28:03Z
2022-12-04T12:29:06Z,42.805,6.029,13.3030,4.60082,2470.624,2022-12-04T14:31:06Z
2022-12-04T12:32:09Z,42.805,6.029,13.3025,4.60084,2470.624,2022-12-04T14:34:09Z
2022-12-04T12:35:13Z,42.805,6.029,13.3029,4.60087,2470.624,2022-12-04T14:37:12Z
2022-12-04T12:38:16Z,42.805,6.029,13.3029,4.60102,2470.614,2022-12-04T14:40:15Z
2022-12-04T12:41:19Z,42.805,6.029,13.3021,4.60094,2470.614,2022-12-04T14:43:18Z
2022-12-04T12:44:22Z,42.805,6.029,13.3030,4.60085,2470.577,2022-12-04T14:46:22Z
2022-12-04T12:47:25Z,42.805,6.029,13.3033,4.60096,2470.637,2022-12-04T14:49:25Z
2022-12-04T12:50:28Z,42.805,6.029,13.3022,4.60103,2470.61,2022-12-04T14:52:28Z
2022-12-04T12:53:31Z,42.805,6.029,13.3029,4.60091,2470.637,2022-12-04T14:55:31Z
2022-12-04T12:56:34Z,42.805,6.029,13.3023,4.60086,2470.614,2022-12-04T14:58:34Z
2022-12-04T12:59:37Z,42.805,6.029,13.3026,4.60095,2470.637,2022-12-04T15:01:37Z
2022-12-04T13:02:40Z,42.805,6.029,13.3028,4.60097,2470.614,2022-12-04T15:04:40Z
2022-12-04T13:05:43Z,42.805,6.029,13.3026,4.60082,2470.624,2022-12-04T15:07:43Z
2022-12-04T13:08:46Z,42.805,6.029,13.3025,4.60075,2470.624,2022-12-04T15:10:46Z
2022-12-04T13:11:49Z,42.805,6.029,13.3023,4.60087,2470.637,2022-12-04T15:13:49Z
2022-12-04T13:14:52Z,42.805,6.029,13.3024,4.60104,2470.624,2022-12-04T15:16:52Z
2022-12-04T13:17:56Z,42.805,6.029,13.3032,4.60084,2470.6,2022-12-04T15:19:55Z
2022-12-04T13:20:59Z,42.805,6.029,13.3029,4.60081,2470.684,2022-12-04T15:22:58Z
2022-12-04T13:24:02Z,42.805,6.029,13.3024,4.60081,2470.637,2022-12-04T15:26:02Z
2022-12-04T13:27:05Z,42.805,6.029,13.3021,4.60081,2470.637,2022-12-04T15:29:05Z
2022-12-04T13:30:08Z,42.805,6.029,13.3021,4.60077,2470.646,2022-12-04T15:32:08Z
2022-12-04T13:33:11Z,42.805,6.029,13.3028,4.60079,2470.646,2022-12-04T15:35:11Z
2022-12-04T13:36:14Z,42.805,6.029,13.3022,4.60081,2470.661,2022-12-04T15:38:14Z
2022-12-04T13:39:17Z,42.805,6.029,13.3021,4.60082,2470.624,2022-12-04T15:41:17Z
2022-12-04T13:42:20Z,42.805,6.029,13.3021,4.60076,2470.646,2022-12-04T15:44:20Z
2022-12-04T13:45:23Z,42.805,6.029,13.3026,4.60098,2470.661,2022-12-04T15:47:23Z
2022-12-04T13:48:26Z,42.805,6.029,13.3026,4.60081,2470.67,2022-12-04T15:50:26Z
2022-12-04T13:51:29Z,42.805,6.029,13.3026,4.60076,2470.661,2022-12-04T15:53:29Z
2022-12-04T13:54:32Z,42.805,6.029,13.3026,4.60079,2470.646,2022-12-04T15:56:32Z
2022-12-04T13:57:36Z,42.805,6.029,13.3025,4.60079,2470.661,2022-12-04T15:59:35Z
2022-12-04T14:00:39Z,42.805,6.029,13.3022,4.60079,2470.684,2022-12-04T16:02:38Z
2022-12-04T14:03:42Z,42.805,6.029,13.3021,4.60094,2470.684,2022-12-04T16:05:42Z
2022-12-04T14:06:45Z,42.805,6.029,13.3025,4.60083,2470.646,2022-12-04T16:08:45Z
2022-12-04T14:09:48Z,42.805,6.029,13.3025,4.60079,2470.67,2022-12-04T16:11:48Z
2022-12-04T14:12:51Z,42.805,6.029,13.3020,4.60075,2470.67,2022-12-04T16:14:51Z
2022-12-04T14:15:54Z,42.805,6.029,13.3023,4.60081,2470.67,2022-12-04T16:17:54Z
2022-12-04T14:18:57Z,42.805,6.029,13.3024,4.60077,2470.684,2022-12-04T16:20:57Z
2022-12-04T14:22:00Z,42.805,6.029,13.3023,4.60078,2470.67,2022-12-04T16:24:00Z
2022-12-04T14:25:03Z,42.805,6.029,13.3029,4.60098,2470.684,2022-12-04T16:27:03Z
2022-12-04T14:28:06Z,42.805,6.029,13.3031,4.60097,2470.684,2022-12-04T16:30:06Z
2022-12-04T14:31:09Z,42.805,6.029,13.3029,4.60097,2470.717,2022-12-04T16:33:09Z
2022-12-04T14:34:12Z,42.805,6.029,13.3021,4.60083,2470.693,2022-12-04T16:36:12Z
2022-12-04T14:37:15Z,42.805,6.029,13.3025,4.60089,2470.73,2022-12-04T16:39:15Z
2022-12-04T14:40:19Z,42.805,6.029,13.3022,4.60082,2470.693,2022-12-04T16:42:18Z
2022-12-04T14:43:22Z,42.805,6.029,13.3026,4.60089,2470.693,2022-12-04T16:45:21Z
2022-12-04T14:46:25Z,42.805,6.029,13.3021,4.60079,2470.717,2022-12-04T16:48:25Z
2022-12-04T14:49:28Z,42.805,6.029,13.3021,4.60079,2470.693,2022-12-04T16:51:28Z
2022-12-04T14:52:31Z,42.805,6.029,13.3025,4.60081,2470.707,2022-12-04T16:54:31Z
2022-12-04T14:55:34Z,42.805,6.029,13.3024,4.60075,2470.693,2022-12-04T16:57:34Z
2022-12-04T14:58:37Z,42.805,6.029,13.3023,4.60082,2470.693,2022-12-04T17:00:37Z
2022-12-04T15:01:40Z,42.805,6.029,13.3023,4.60080,2470.74,2022-12-04T17:03:40Z